Regional Weather Roundup
Issued by NWS

Home | Current Version | Previous Version | Text Only | Print | Product List | Glossary Off
Versions: 1 2 3 4 5 6 7 8 9 10 11 12 13 14 15 16 17 18 19 20 21 22 23 24 25 26 27 28 29 30 31 32 33 34 35 36 37 38 39 40 41 42 43 44 45 46 47 48 49 50

000
ASUS43 KDMX 280907
RWRIA

WEATHER ROUNDUP FOR IOWA
NATIONAL WEATHER SERVICE DES MOINES IA
400 AM CDT FRI AUG 28 2015

NOTE: "FAIR" INDICATES FEW OR NO CLOUDS BELOW 12,000 FEET WITH NO
SIGNIFICANT WEATHER AND/OR OBSTRUCTIONS TO VISIBILITY.

* - THESE STATIONS ARE NOT NWS STATIONS...THUS NOT UNDER NWS
QUALITY CONTROL.  THEY ALSO DO NOT REPORT WEATHER SUCH
AS PRECIPITATION OR FOG.

IAZ001>003-012>014-020>022-031>034-043>046-281000-
   NORTHWEST IOWA

CITY           SKY/WX    TMP DP  RH WIND       PRES   REMARKS
CARROLL *      CLOUDY    63  63 100 E14       29.97F FOG
CHEROKEE *     RAIN      63  63 100 SE13G18   29.94F
DENISON *      LGT RAIN  64  63  94 SE15      29.89F
LE MARS *      CLOUDY    64  64 100 SE13      29.89F
ORANGE CITY *  DRIZZLE   64  64 100 SE6       29.91S
SHELDON *      CLEAR     63  63 100 SE10G16   29.92S
SIOUX CITY     LGT RAIN  67  62  84 NE15G28   29.84F
SPENCER        LGT RAIN  64  61  90 SE16      29.95F
STORM LAKE *   LGT RAIN  63  63 100 SE9       29.97F
$$

IAZ055>058-069>071-079>083-090>094-281000-
   SOUTHWEST IOWA

CITY           SKY/WX    TMP DP  RH WIND       PRES   REMARKS
ATLANTIC *     RAIN      64  64 100 E8        29.95F
AUDUBON *      HVY RAIN  63  61  94 SE13      29.96F
CLARINDA *     CLOUDY    66  66 100 VRB7      29.96F
COUNCIL BLFS * LGT RAIN  66  66 100 E22G30    29.87F
CRESTON *      CLOUDY    63  63 100 SE9       30.00F
HARLAN  *      LGT RAIN  64  64 100 SE15G28   29.94F
LAMONI         CLOUDY    66  61  84 S5        30.01R
RED OAK *      LGT RAIN  66  66 100 SE8       29.95F
SHENANDOAH *   CLOUDY    68  66  94 SE8       29.94F FOG
$$

IAZ047>049-059>061-072>074-084-281000-
   CENTRAL IOWA

CITY           SKY/WX    TMP DP  RH WIND       PRES   REMARKS
AMES           CLOUDY    62  61  96 SE3       30.04S
ANKENY *       CLOUDY    64  61  88 SE7       30.04S
CHARITON *     CLOUDY    63  61  94 SE8       30.02S
DES MOINES     TSTM      65  60  84 E9        30.03R
GRINNELL*      CLOUDY    61  59  94 E7        30.07R
KNOXVILLE *    CLOUDY    64  59  82 CALM      30.04R
MARSHALLTOWN   CLOUDY    61  60  97 CALM      30.06R
PELLA *        CLOUDY    63  63 100 CALM      30.07R
PERRY *        LGT RAIN  64  63  94 SE5       30.02F
$$

IAZ004>006-015-016-023>025-035-036-281000-
   NORTH CENTRAL IOWA

CITY           SKY/WX    TMP DP  RH WIND       PRES   REMARKS
ALGONA *       DRIZZLE   63  63 100 SE10      30.02F
CLARION *      CLOUDY    63  61  94 SE10G16   30.04R
ESTHERVILLE    LGT RAIN  62  61  96 SE9       29.99F
FORT DODGE *   CLOUDY    63  59  88 SE6       30.03S
MASON CITY     CLOUDY    62  61  96 S9        30.05S
FOREST CITY *  MOCLDY    61  61 100 SE8       30.03F
IOWA FALLS *   MOCLDY    63  61  94 SE3       30.07S
$$

IAZ007>011-017>019-026>030-037>042-050>054-066-281000-
   NORTHEAST IOWA

CITY           SKY/WX    TMP DP  RH WIND       PRES   REMARKS
CEDAR RAPIDS   CLOUDY    62  59  90 CALM      30.07R
CHARLES CITY * LGT RAIN  63  63 100 S8        30.06F
CLINTON *      CLOUDY    61  57  88 SE6       30.11S
DECORAH *      MOCLDY    61  59  94 S3        30.07F
DUBUQUE        CLOUDY    61  58  90 S6        30.10R
MONTICELLO *   PTCLDY    61  59  94 CALM      30.10R
OELWEIN *        N/A     61  59  94 S6        30.09F
WATERLOO       LGT RAIN  62  60  93 SE10      30.06F FOG
$$

IAZ064-065-067-068-078-281000-
   EAST CENTRAL IOWA

CITY           SKY/WX    TMP DP  RH WIND       PRES   REMARKS
DAVENPORT      CLOUDY    63  58  83 SE6       30.08F
IOWA CITY      CLOUDY    61  58  90 S5        30.08R
MT. PLEASANT * MOCLDY    61  57  88 SE3       30.07S
MUSCATINE *    CLEAR     63  57  82 S3        30.07F
QUAD CITIES    CLOUDY    62  57  83 SE3       30.08S
$$

IAZ062-063-075>077-085>089-095>099-281000-
   SOUTHEAST IOWA

CITY           SKY/WX    TMP DP  RH WIND       PRES   REMARKS
BURLINGTON     MOCLDY    62  58  86 SE6       30.07F
FAIRFIELD *    MOCLDY    59  57  94 SE5       30.05F
FORT MADISON * CLEAR     63  57  82 S7        30.08F
KEOKUK *       CLEAR     61  59  94 SE6       30.06F
OSKALOOSA *      N/A     61  59  94 E6        30.04F
CENTERVILLE *  PTCLDY    63  59  88 SE8       30.04S
OTTUMWA        CLOUDY    62  59  90 SE8       30.02F
WASHINGTON *     N/A    N/A N/A N/A MISG        N/A
$$

ABBREVIATIONS USED IN REMARKS
   TC - TEMPERATURES IN CELSIUS
  WCI - WIND CHILL INDEX
   HX - HEAT INDEX
  VSB - VISIBILITY
$$



USA.gov is the U.S. government's official web portal to all federal, state and local government web resources and services.